User: anonymous
Location: Caltech
(34.1382°N, 118.1253°W)
Time: 07:52:30
(UTC-07:00)
Language:

Cosmos 1943 Rocket - Orbit

View from above orbital plane
View from above orbital plane
View from above satellite
View from above satellite

Ground track
Ground track

The orbit data is extracted from the following two-line orbital elements,

1 19120U 88039B   14111.49193047  .00000224  00000-0  13011-3 0   354
2 19120 071.0163 240.2550 0020841 160.8098 264.5498 14.19026466342868
Epoch (UTC): 21 April 2014 11:48:22
Eccentricity: 0.0020841
inclination: 71.0163°
perigee height: 813 km
apogee height: 843 km
right ascension of ascending node: 240.2550°
argument of perigee: 160.8098°
revolutions per day: 14.19026466
mean anomaly at epoch: 264.5498°
orbit number at epoch: 34286

The dashed part of the orbit path shows where the satellite is in the earth's shadow,  

DLR